Belize, Belize

6:33 PM CST on September 19, 2017 (GMT -0600)
Philip S W Goldson International

Weather History for MZBZ - December, 2012

Change the Weather History Date:

Friday, December 14, 2012

  Actual Average Record
Temperature  
Mean Temperature 76 °F -  
Max Temperature 81 °F - 86 °F (2000)
Min Temperature 70 °F 68 °F 60 °F (2010)
Cooling Degree Days 10    
Growing Degree Days 26 (Base 50)    
Moisture  
Dew Point 74 °F    
Average Humidity 92    
Maximum Humidity 100    
Minimum Humidity 77    
Precipitation  
Precipitation 0.16 in 0.21 in - ()
Sea Level Pressure  
Sea Level Pressure 30.03 in    
Wind  
Wind Speed 4 mph ()    
Max Wind Speed 9 mph    
Max Gust Speed -    
Visibility 7.1 miles    
Events Rain    
Averages and records for this station are not official NWS values.
T = Trace of Precipitation, MM = Missing Value Source: Averaged Metar Reports

Daily Weather History Graph

Daily Weather History Graph

Search for Another Location

Airport or City:

Trip Planner

Search our weather history database for the weather conditions in past years. The results will help you decide how hot, cold, wet, or windy it might be!

Date:

Astronomy

Dec. 14, 2012 Rise Set
Actual Time 6:15 AM CST 5:20 PM CST
Civil Twilight 5:51 AM CST 5:44 PM CST
Nautical Twilight 5:24 AM CST 6:11 PM CST
Astronomical Twilight 4:57 AM CST 6:38 PM CST
Moon 7:26 AM CST (12/14) 7:03 PM CST (12/14)
Length of Visible Light 11h 52m
Length of Day
11h 05m
Waxing Crescent, 3% of the Moon is Illuminated
Dec 14
Waxing Crescent
Dec 19
First Quarter
Dec 28
Full
Jan 4
Last Quarter
Jan 11
New

Hourly Weather History & Observations

Time (CST) Temp. Heat Index Dew Point Humidity Pressure Visibility Wind Dir Wind Speed Gust Speed Precip Events Conditions
12:00 AM 74 °F - 73 °F 95% 30.06 in 12 mi West 3.5 mph - - Rain Light Rain Showers
3:00 AM 71 °F - 70 °F 95% 30.03 in 12 mi West 2.3 mph - -   Partly Cloudy
5:00 AM 71.6 °F - 71.6 °F 100% 30.01 in 4.3 mi WNW 2.3 mph - N/A Rain Light Rain Showers
6:00 AM 72 °F - 71 °F 96% 30.05 in 6 mi West 2.3 mph - - Rain Light Rain Showers
6:00 AM 71.6 °F - 71.6 °F 100% 30.04 in 6.2 mi West 2.3 mph - N/A   Scattered Clouds
7:00 AM 73.4 °F - 71.6 °F 94% 30.04 in 3.1 mi WNW 4.6 mph - N/A   Mostly Cloudy
8:00 AM 73.4 °F - 73.4 °F 100% 30.06 in 3.7 mi WNW 4.6 mph - N/A   Mostly Cloudy
9:00 AM 75 °F - 74 °F 95% 30.09 in 11 mi WNW 5.8 mph - - Rain Light Rain Showers
9:00 AM 75.2 °F - 73.4 °F 94% 30.08 in 6.2 mi WNW 5.8 mph - N/A   Mostly Cloudy
9:30 AM - - - N/A% 30.09 in 6.2 mi WNW 4.6 mph - N/A Rain Light Rain Showers
10:00 AM 77.0 °F - 75.2 °F 94% 30.08 in 6.2 mi NW 4.6 mph - N/A Rain Light Rain Showers
11:00 AM 77.0 °F - 75.2 °F 94% 30.07 in 6.2 mi NNW 8.1 mph - N/A   Mostly Cloudy
12:00 PM 77 °F - 74 °F 90% 30.05 in 11 mi NNW 9.2 mph - - Rain Light Rain Showers
12:00 PM 77.0 °F - 75.2 °F 94% 30.04 in 6.2 mi NNW 9.2 mph - N/A   Mostly Cloudy
1:00 PM 78.8 °F - 75.2 °F 89% 30.01 in 6.2 mi NW 5.8 mph - N/A   Mostly Cloudy
2:00 PM 80.6 °F 86.2 °F 75.2 °F 84% 29.99 in 6.2 mi NE 5.8 mph - N/A   Mostly Cloudy
3:00 PM 81 °F - 75 °F 77% 29.98 in 11 mi ENE 5.8 mph - -   Mostly Cloudy
3:00 PM 80.6 °F 86.2 °F 75.2 °F 84% 29.98 in 6.2 mi ENE 5.8 mph - N/A   Mostly Cloudy
4:00 PM 80.6 °F 87.1 °F 77.0 °F 89% 29.97 in 6.2 mi NNW 3.5 mph - N/A   Scattered Clouds
5:00 PM 80.6 °F 85.4 °F 73.4 °F 79% 29.97 in 6.2 mi NE 4.6 mph - N/A   Scattered Clouds
5:20 PM 77.0 °F - 73.4 °F 89% 29.98 in 1.9 mi ENE 6.9 mph - N/A Rain Rain Showers
5:35 PM 77.0 °F - 73.4 °F 89% 29.98 in 3.7 mi NNE 4.6 mph - N/A   Scattered Clouds
6:00 PM 76 °F - 74 °F 93% 29.99 in 12 mi 2.3 mph - - Rain Light Rain Showers
6:00 PM 77.0 °F - 75.2 °F 94% 29.98 in 6.2 mi Variable 2.3 mph - N/A   Scattered Clouds
9:00 PM 76 °F - 75 °F 95% 30.03 in 12 mi Calm Calm - -   Partly Cloudy